Find Starlink 31366

NORAD ID: 59403 Int'l Des: 2024-064 Owner: SPXS Country: US Constellation: starlink operational
LEOCIRCULAR

現在のビュー

3D地球を読み込み中...

About Starlink 31366

Starlink 31366 (NORAD 59403) is a starlink constellation satellite (v2 mini) launched Apr 5, 2024 by SPXS of US. It operates in LEO, CIRCULAR orbit with a mass of 730.00 kg.

Starlink 31366について

説明を読み込み中...

次回通過

Passes for default location (London). Set your location on the main map for personalized predictions.

高度履歴

Loading altitude history...

軌道要素

1 59403U 24064F 26167.41047697 .00001229 00000-0 54165-4 0 9996
2 59403 43.0034 218.6704 0001429 268.6608 91.4080 15.27583485124329
Epoch: Jun 16, 2026 • Age: 9 hours

現在のステータス

高度 495.4 km
速度 7.62 km/s
衛星直下点 -43.15°S, 62.81°W
打ち上げ日 Apr 5, 2024
運用期間 2.1 years
タイプ internet

技術仕様

分類 Payload
質量 730.00 kg
乾燥質量 700.00 kg
総質量 730.00 kg
長さ 0.30 m
直径 4.10 m
スパン 29.00 m
形状 Box + pan
製造者 SPXS
バスタイプ Starlink V2M
フェーズステータス In Orbit
所有者/国 SPXS/US

Most Searched